Wind_Speed
36 37 34 28 32 30 28 28 27 25 22 18 16 14 11 4 5 6 6 7 8 7 7 7 8 8 7 9 11 10 9 8 7 6 7 7 6 8 9 10 13 16 14 14 18 22 25 30 32 34 45 48 44 44
35 36 33 30 32 31 28 28 26 23 21 16 13 13 11 5 8 7 6 5 6 6 7 8 9 11 11 11 12 12 10 12 11 11 9 9 10 8 7 7 9 11 10 11 11 15 18 26 33 32 35 50 44 41
34 34 32 30 30 32 28 28 25 21 21 15 13 12 11 8 9 9 7 5 5 4 7 9 10 10 10 11 14 13 12 12 12 12 12 11 10 9 10 8 8 10 10 7 7 7 10 15 23 29 33 37 48 44
36 35 31 31 30 30 27 26 24 20 19 15 13 13 12 10 10 12 10 7 3 5 9 9 11 10 8 12 12 13 11 10 9 10 11 10 9 8 9 10 11 11 10 12 10 9 10 11 11 18 30 44 44 51
39 36 33 33 34 27 26 23 21 20 19 14 12 13 12 11 10 15 15 11 8 9 9 9 8 6 10 12 9 7 8 8 9 8 8 10 9 9 9 10 11 13 14 14 13 13 11 10 11 13 12 19 22 34
41 37 34 33 37 25 24 22 20 19 17 13 12 12 10 10 11 15 17 14 11 11 8 8 8 10 11 8 7 8 9 9 8 8 8 9 10 10 10 9 8 7 9 10 12 13 15 16 16 15 14 15 19 21
41 37 34 36 31 22 22 22 18 18 15 13 12 12 9 9 9 14 16 13 11 9 7 7 8 11 9 8 8 8 9 7 9 8 7 7 7 7 8 8 8 8 8 8 9 10 11 12 14 18 21 21 22 22
37 34 34 37 21 19 21 19 17 17 13 13 11 11 10 9 13 15 14 11 9 8 6 6 8 7 9 8 7 8 9 9 10 10 8 5 4 4 5 6 7 7 8 8 9 10 11 12 13 15 17 21 25 28
34 33 39 23 15 16 20 19 17 16 13 12 11 11 10 11 16 16 13 11 9 7 6 6 5 4 6 6 7 8 10 9 9 10 10 7 5 3 3 4 5 6 6 6 6 5 5 7 9 11 14 16 20 24
30 34 30 15 13 14 18 18 17 15 12 12 11 11 11 15 17 16 14 12 9 7 6 5 2 1 3 5 6 7 10 10 9 8 9 11 10 6 4 3 4 6 7 8 10 11 12 11 11 12 14 16 17 18
31 29 23 14 12 13 18 17 16 15 12 13 12 10 12 19 18 18 16 12 9 7 6 5 4 1 2 4 6 8 8 8 9 10 10 11 11 11 10 6 4 3 4 6 6 8 9 11 13 13 14 15 18 19
30 30 20 12 10 13 16 16 15 14 14 14 13 12 13 20 19 20 16 13 9 6 7 7 4 1 2 4 6 7 7 6 7 8 10 11 11 11 10 9 9 8 7 6 6 7 9 10 12 13 14 15 16 17
31 29 14 9 10 14 15 15 14 14 16 14 14 14 15 21 22 19 16 13 8 5 7 7 5 2 1 3 5 7 8 6 7 7 8 10 11 12 12 13 13 12 11 10 10 10 10 11 12 13 14 15 17 19
27 17 10 10 11 13 14 15 15 15 17 17 16 16 18 23 22 20 19 13 10 8 7 6 5 3 4 4 4 4 8 9 8 8 9 11 12 12 13 14 15 15 15 15 15 15 16 16 17 18 18 18 19 19
20 13 12 10 12 14 14 14 14 14 17 19 18 17 18 23 24 22 20 17 14 11 9 7 5 3 4 4 6 9 10 10 9 10 10 11 12 12 13 15 15 16 17 17 17 18 19 20 21 23 23 24 23 23
14 12 11 13 14 13 14 14 14 14 14 17 20 18 21 24 25 25 23 20 17 14 11 9 8 6 6 7 8 10 13 13 14 14 15 16 15 16 17 18 17 17 18 19 20 20 20 22 24 26 25 25 25 26
14 13 13 14 13 13 13 15 15 15 16 16 18 21 23 26 28 27 24 23 21 16 13 12 12 8 10 11 12 14 15 17 17 18 18 18 18 18 18 19 19 19 21 22 22 23 24 25 28 32 28 25 25 27
14 14 14 14 12 12 12 13 14 14 15 18 22 23 24 29 29 29 25 25 24 22 20 17 15 11 12 17 18 15 15 18 21 21 22 22 22 21 21 21 21 23 22 19 22 24 25 29 29 30 26 23 24 26
15 13 14 12 10 9 10 12 13 13 16 19 21 22 26 28 28 30 28 27 27 26 24 22 20 14 17 21 21 21 21 20 22 23 24 25 24 25 25 26 25 24 21 21 23 24 28 30 32 32 24 22 23 24
17 16 15 13 9 9 11 11 13 13 13 14 17 21 25 25 25 26 27 25 26 26 24 22 22 24 24 26 25 24 25 24 25 25 26 28 27 27 28 28 27 25 22 22 24 28 33 31 33 29 21 22 23 22
23 23 18 15 12 10 10 12 12 13 15 15 14 18 20 21 23 24 25 26 26 24 23 24 26 28 29 27 27 27 27 27 25 26 27 29 29 30 30 29 28 28 27 24 29 29 28 33 32 24 18 21 22 21
19 20 19 15 13 12 10 11 10 12 15 19 20 18 20 21 22 23 24 25 24 23 24 26 29 29 28 29 30 29 28 28 29 29 30 31 29 28 37 32 26 28 29 27 26 31 36 36 27 17 18 21 19 18
18 18 16 13 13 11 10 10 6 5 7 9 12 19 21 21 23 24 21 20 21 22 24 25 26 27 28 29 28 29 31 30 33 34 35 32 32 34 41 31 34 30 30 27 30 29 32 32 20 15 18 19 17 18
18 15 14 12 11 10 9 10 8 8 8 7 8 12 16 21 23 22 19 19 21 21 21 22 24 24 26 25 24 24 23 23 24 24 24 27 29 33 36 42 35 34 33 26 24 22 27 21 15 15 16 17 17 18
16 15 13 11 9 8 8 8 9 9 10 11 10 11 13 14 16 18 19 18 16 15 14 15 16 18 18 19 21 21 21 20 20 22 21 23 23 20 30 36 32 21 19 23 22 23 17 16 14 13 14 16 16 15
15 16 15 13 11 8 5 6 8 8 5 6 7 8 7 8 10 13 14 14 14 14 13 14 13 11 13 15 16 19 22 23 23 24 22 20 18 29 28 22 20 32 25 18 17 16 15 14 14 13 13 14 14 14
13 15 16 15 12 9 8 8 9 9 7 6 7 7 9 9 9 12 11 10 11 12 14 16 18 19 19 21 22 24 22 21 24 21 20 19 17 19 20 22 24 23 21 19 18 17 15 14 14 13 13 14 14 15
14 13 13 14 13 11 9 9 11 11 10 9 9 12 11 9 9 11 12 14 16 18 19 20 18 20 24 27 26 24 21 20 18 19 18 18 20 19 19 18 16 14 15 15 14 13 13 13 13 13 13 13 14 16
11 9 11 13 12 10 9 11 12 13 12 9 10 11 12 11 10 9 9 11 14 16 19 23 24 23 18 14 14 15 16 17 17 17 15 14 13 13 12 11 11 13 14 14 13 12 12 12 12 13 12 12 13 16
9 12 13 13 12 12 12 10 9 9 9 8 10 12 12 11 10 8 8 10 15 17 14 14 13 14 15 16 17 16 15 13 10 9 11 12 13 14 13 12 12 13 13 14 13 11 12 11 12 12 13 12 12 13
16 15 13 11 8 7 6 5 4 7 6 5 5 5 7 8 9 9 11 16 16 13 12 14 14 15 15 13 11 11 13 14 15 16 17 17 18 17 17 16 14 13 13 13 12 12 11 11 12 12 12 12 12 12
10 9 8 8 9 12 13 12 10 8 6 3 2 6 8 7 9 11 10 11 10 11 12 13 11 11 11 13 15 17 18 18 19 19 19 19 19 18 18 17 14 13 13 12 12 11 11 11 12 12 12 12 12 13
10 11 13 16 15 13 12 10 8 7 5 1 4 8 11 13 15 8 8 9 10 10 9 10 12 13 15 16 18 19 20 21 22 22 22 23 21 19 17 16 14 12 13 13 12 11 10 10 11 11 12 11 12 12
Wind_Direction
305 310 311 322 324 326 329 324 324 330 327 327 327 328 340 297 216 227 244 242 238 251 262 273 269 276 292 329 338 317 305 312 318 307 294 288 274 258 255 258 232 231 237 236 230 234 234 225 225 222 221 224 224 225
298 303 310 318 322 325 324 320 321 325 320 320 316 315 320 308 240 238 238 228 221 238 274 281 277 276 281 299 318 318 299 287 292 300 289 271 271 265 263 254 222 216 220 215 221 232 243 229 228 223 224 223 222 227
291 295 302 304 310 317 317 316 317 318 315 313 299 306 301 288 241 233 233 203 217 273 298 304 297 297 293 299 307 313 308 295 285 288 289 275 261 265 267 260 243 235 224 211 228 239 243 239 236 227 224 228 226 230
287 290 298 296 302 309 309 311 314 311 310 303 292 298 288 279 245 222 219 206 242 306 302 309 313 313 317 318 320 321 316 307 294 297 288 278 270 264 261 259 253 251 245 238 246 240 248 249 258 236 225 222 223 230
282 284 285 289 300 302 303 305 308 306 307 292 295 297 283 271 258 220 216 223 261 299 301 311 314 321 326 324 327 347 345 324 311 313 286 286 282 279 269 262 253 250 246 242 242 240 237 242 248 262 262 222 211 218
273 278 278 277 293 291 297 300 302 301 300 285 292 296 276 272 259 218 214 227 254 290 292 307 318 335 333 335 355 348 329 327 314 307 295 286 282 278 274 270 263 253 250 245 241 240 241 240 242 244 244 253 257 244
263 267 269 276 281 284 291 292 295 293 288 280 287 281 269 266 231 197 202 217 243 264 275 301 328 336 337 342 351 351 352 349 352 339 315 298 289 278 275 270 267 259 249 240 240 236 235 235 235 237 243 244 246 253
256 261 265 276 266 281 284 286 285 286 277 277 281 268 268 254 192 184 192 213 228 242 272 300 324 340 348 356 3 6 360 2 2 359 351 330 304 273 261 263 265 264 261 258 253 252 252 250 250 248 242 238 242 247
257 265 272 246 260 272 280 279 278 280 267 266 265 262 253 226 185 187 196 203 214 236 264 289 317 346 356 3 8 11 12 10 4 4 6 358 328 295 274 251 239 251 257 256 243 235 247 265 269 265 261 257 253 248
260 263 246 231 248 264 275 271 273 271 258 254 255 259 238 206 191 193 198 202 211 232 253 261 240 307 359 5 9 11 19 22 17 9 10 16 17 358 319 278 255 227 231 272 255 257 269 270 269 272 271 267 265 263
267 265 230 227 245 259 265 265 269 259 246 241 242 235 227 202 199 197 197 202 212 232 238 227 220 238 331 348 11 18 18 20 19 17 13 14 16 20 22 19 360 328 281 274 281 283 285 285 286 285 279 270 263 261
270 269 223 222 238 252 256 262 262 250 237 231 228 217 220 202 204 200 199 202 211 222 218 223 224 233 336 360 6 15 24 20 15 7 13 16 17 16 16 13 9 3 352 336 316 299 291 287 285 286 289 288 282 277
265 251 210 202 228 247 256 258 247 235 230 225 220 216 220 208 207 199 202 205 204 197 208 214 213 226 304 359 12 17 16 9 11 5 3 10 11 9 10 8 2 353 348 342 335 329 321 311 304 299 294 286 281 281
257 222 183 206 230 247 252 244 237 228 224 220 215 219 222 210 202 199 206 198 186 185 189 195 203 226 267 281 317 349 8 6 4 3 353 349 348 349 351 353 352 349 345 338 334 329 323 315 307 300 293 289 287 285
241 205 193 209 233 239 240 234 234 230 223 219 218 223 221 208 201 202 204 200 191 191 196 197 212 242 276 286 305 315 327 337 339 341 338 335 330 331 331 330 333 335 338 336 334 331 326 320 314 305 297 289 285 283
196 176 207 223 228 231 232 230 230 227 222 222 222 222 214 204 201 205 207 205 203 197 204 211 222 241 270 294 305 317 323 324 324 323 321 326 331 333 333 328 327 330 331 326 322 324 323 320 308 304 298 292 287 284
175 205 215 223 225 224 223 227 231 228 228 225 224 220 214 206 205 208 212 212 213 210 217 226 236 245 269 286 297 300 306 314 317 315 315 318 317 316 315 317 322 323 325 326 327 326 322 319 320 323 304 296 291 291
193 203 212 219 216 216 219 226 229 230 227 223 222 221 218 212 209 211 214 220 221 223 227 232 246 259 271 276 287 295 305 306 301 303 304 301 301 303 308 311 316 324 322 324 319 320 323 322 319 318 306 291 291 294
184 197 206 212 214 216 220 229 228 226 227 231 229 226 222 215 214 216 220 224 226 231 237 244 252 263 261 268 280 294 301 292 288 288 293 298 300 297 300 305 308 315 318 324 323 316 319 322 323 315 302 290 295 295
175 210 217 211 215 219 220 227 227 231 240 236 229 222 216 214 217 220 224 228 232 237 244 254 262 264 263 266 277 284 289 293 291 294 297 297 305 306 293 293 305 307 314 317 312 317 317 321 321 316 300 291 295 294
194 202 209 216 218 230 234 232 229 238 245 234 227 213 209 218 222 226 228 230 235 241 247 252 257 264 269 274 278 281 287 285 287 290 290 298 301 302 299 283 299 303 306 309 317 310 320 324 319 308 294 293 295 297
197 201 204 210 224 233 239 238 246 249 244 239 231 221 221 224 228 232 234 237 240 247 253 257 261 267 272 272 270 272 275 277 283 284 280 280 288 288 294 284 294 297 301 300 314 305 305 318 308 293 294 294 296 303
196 200 206 215 222 232 232 230 241 253 240 241 235 227 229 229 230 232 235 240 247 253 258 265 270 269 266 266 271 279 285 287 288 289 285 273 283 290 301 266 284 290 297 293 301 305 315 310 295 294 293 293 304 304
195 201 206 209 216 221 225 224 237 244 237 242 246 233 224 227 228 231 237 245 248 254 261 265 270 271 274 274 282 283 285 290 291 291 292 284 284 288 288 284 285 293 295 300 312 312 305 296 297 296 293 300 308 305
196 199 201 205 211 218 224 224 230 238 241 249 239 219 217 219 225 227 235 243 248 250 264 279 282 283 281 277 279 279 293 302 306 300 304 305 307 305 290 286 297 300 308 342 321 309 301 296 293 293 300 303 307 304
208 208 213 213 217 225 229 231 226 231 270 216 213 203 196 200 210 223 229 240 242 251 269 268 280 288 299 296 295 297 292 285 297 311 307 295 317 318 302 297 294 309 335 319 312 312 309 301 296 303 305 303 308 311
209 214 214 211 214 220 223 221 220 211 216 210 202 201 194 199 220 229 232 240 239 259 280 284 287 294 300 298 297 302 299 297 301 304 311 317 310 305 298 296 310 321 324 324 320 319 315 306 305 306 305 310 318 322
211 212 209 206 212 221 226 223 214 207 209 219 215 204 201 207 234 244 251 257 267 277 288 297 292 293 300 304 303 303 299 298 305 308 306 302 298 297 300 307 310 317 318 320 323 319 312 309 311 312 312 316 317 321
207 192 192 197 202 214 220 217 215 210 217 222 226 227 222 217 235 249 266 282 294 301 304 301 295 297 307 314 316 318 315 311 308 307 309 311 313 310 306 309 325 324 325 322 316 314 312 312 312 310 312 312 311 325
163 171 184 193 201 210 216 219 219 221 231 228 222 224 227 233 265 288 285 288 296 297 307 319 323 320 320 319 319 318 318 321 327 333 330 324 321 316 312 312 312 316 317 311 311 316 315 316 312 310 310 304 310 312
178 183 192 197 198 191 192 204 180 150 161 183 204 229 247 249 256 269 288 301 300 302 318 318 318 318 321 324 327 326 325 322 321 322 321 317 313 309 307 305 308 314 312 310 308 313 317 320 318 311 307 307 305 308
182 185 177 157 147 143 142 150 163 169 169 170 219 241 242 253 275 277 301 307 312 317 315 316 317 321 322 323 323 323 321 318 317 315 313 309 306 305 306 306 305 304 302 304 300 300 308 317 318 317 312 306 301 303
133 137 142 149 154 151 143 135 133 141 149 150 299 284 276 274 291 323 318 312 313 317 320 320 320 321 323 324 321 318 315 313 312 310 309 307 305 305 304 301 301 302 302 301 293 292 300 308 310 311 312 309 304 300
Height
5802 5798 5795 5791 5789 5785 5780 5776 5772 5768 5764 5761 5759 5757 5755 5753 5752 5753 5752 5752 5754 5755 5756 5755 5755 5754 5753 5752 5751 5750 5749 5748 5747 5746 5746 5745 5744 5744 5744 5744 5744 5748 5749 5750 5751 5753 5754 5755 5759 5766 5772 5775 5782 5788
5793 5791 5788 5785 5783 5779 5775 5771 5768 5763 5760 5758 5756 5754 5752 5751 5750 5750 5751 5750 5751 5753 5754 5753 5752 5752 5751 5750 5749 5748 5747 5745 5744 5743 5743 5742 5742 5742 5742 5742 5742 5744 5745 5745 5747 5748 5748 5749 5752 5757 5761 5766 5774 5780
5784 5783 5780 5779 5776 5773 5770 5766 5763 5759 5755 5753 5752 5750 5749 5748 5747 5748 5749 5749 5750 5751 5751 5751 5750 5749 5748 5747 5746 5745 5743 5742 5740 5740 5739 5738 5739 5739 5739 5739 5739 5740 5741 5742 5743 5744 5744 5745 5747 5750 5754 5758 5764 5770
5774 5773 5772 5770 5768 5766 5763 5759 5757 5754 5750 5748 5747 5746 5744 5743 5744 5745 5746 5747 5748 5749 5749 5749 5747 5746 5745 5744 5743 5741 5739 5738 5736 5736 5735 5734 5735 5736 5736 5736 5737 5738 5738 5739 5740 5741 5741 5741 5742 5745 5747 5750 5756 5761
5763 5763 5763 5762 5760 5759 5756 5753 5750 5748 5746 5744 5742 5741 5740 5740 5741 5741 5743 5745 5746 5748 5747 5746 5745 5744 5743 5741 5739 5738 5736 5735 5734 5733 5732 5731 5731 5732 5732 5733 5733 5734 5735 5736 5737 5738 5738 5739 5740 5741 5741 5743 5747 5752
5750 5751 5752 5752 5751 5751 5748 5746 5743 5742 5740 5739 5738 5737 5736 5736 5737 5737 5740 5743 5743 5744 5744 5743 5743 5742 5740 5739 5737 5736 5734 5733 5731 5730 5729 5728 5728 5728 5728 5728 5729 5730 5731 5732 5733 5734 5735 5736 5737 5737 5739 5740 5743 5745
5737 5739 5740 5741 5741 5741 5740 5739 5737 5735 5734 5734 5733 5732 5731 5731 5732 5735 5738 5740 5740 5742 5741 5741 5741 5740 5738 5737 5736 5735 5733 5732 5730 5728 5726 5725 5724 5724 5724 5725 5725 5726 5727 5728 5730 5731 5732 5733 5734 5735 5736 5737 5739 5740
5723 5727 5728 5730 5730 5732 5732 5731 5730 5728 5728 5729 5729 5729 5728 5728 5729 5732 5734 5736 5737 5739 5739 5739 5739 5738 5737 5736 5735 5734 5732 5730 5729 5727 5724 5723 5722 5722 5722 5722 5722 5722 5723 5724 5725 5726 5727 5729 5730 5731 5732 5733 5734 5734
5712 5716 5717 5717 5719 5722 5724 5724 5723 5722 5722 5722 5724 5724 5724 5725 5726 5729 5731 5733 5735 5738 5737 5737 5738 5737 5736 5735 5734 5733 5731 5730 5728 5726 5724 5722 5720 5719 5719 5719 5719 5719 5720 5720 5721 5722 5723 5723 5724 5724 5725 5726 5728 5729
5703 5705 5705 5707 5710 5713 5716 5716 5715 5716 5717 5717 5719 5720 5720 5722 5724 5727 5729 5731 5732 5734 5734 5735 5736 5736 5735 5734 5733 5732 5731 5729 5727 5726 5724 5722 5720 5719 5718 5717 5717 5717 5717 5717 5718 5718 5719 5719 5719 5719 5718 5718 5718 5718
5693 5695 5695 5697 5701 5704 5707 5708 5708 5709 5710 5712 5713 5714 5717 5719 5722 5724 5726 5729 5730 5732 5732 5733 5733 5734 5734 5733 5732 5731 5730 5729 5727 5726 5724 5722 5721 5719 5718 5717 5717 5716 5716 5715 5715 5714 5714 5714 5713 5713 5713 5712 5712 5712
5684 5686 5686 5689 5693 5697 5699 5701 5702 5704 5705 5706 5708 5709 5713 5716 5719 5722 5724 5727 5728 5729 5729 5730 5732 5732 5732 5731 5730 5730 5729 5728 5726 5725 5723 5722 5721 5719 5718 5717 5716 5716 5715 5714 5713 5713 5712 5711 5709 5708 5707 5706 5705 5705
5675 5677 5678 5681 5686 5690 5692 5694 5695 5697 5700 5701 5703 5705 5709 5713 5716 5718 5722 5724 5725 5726 5727 5728 5730 5730 5730 5729 5730 5729 5728 5727 5726 5725 5723 5721 5719 5718 5716 5715 5714 5713 5712 5711 5710 5709 5708 5706 5705 5704 5703 5701 5699 5698
5667 5668 5671 5676 5680 5683 5686 5688 5689 5691 5693 5696 5698 5701 5704 5708 5712 5715 5719 5721 5723 5724 5725 5726 5727 5728 5728 5728 5728 5728 5728 5726 5724 5723 5722 5720 5718 5717 5715 5714 5713 5712 5710 5708 5707 5705 5703 5702 5700 5697 5695 5694 5692 5690
5659 5662 5666 5670 5674 5677 5680 5682 5684 5685 5687 5691 5693 5695 5700 5705 5708 5712 5715 5717 5720 5721 5723 5724 5725 5726 5726 5726 5725 5725 5725 5724 5723 5722 5720 5718 5717 5715 5713 5711 5710 5708 5707 5705 5703 5700 5698 5696 5694 5692 5689 5687 5685 5683
5653 5657 5662 5666 5669 5672 5674 5676 5678 5680 5682 5685 5688 5691 5695 5700 5704 5707 5710 5714 5716 5718 5720 5722 5723 5723 5724 5724 5723 5722 5721 5720 5719 5717 5716 5714 5713 5711 5710 5709 5707 5704 5702 5700 5698 5695 5692 5689 5687 5684 5682 5679 5677 5675
5649 5654 5658 5662 5664 5667 5668 5671 5673 5675 5677 5681 5683 5686 5690 5695 5698 5702 5705 5709 5712 5714 5716 5718 5719 5719 5720 5720 5719 5718 5717 5716 5714 5713 5712 5710 5709 5707 5706 5705 5703 5700 5697 5694 5692 5689 5685 5682 5679 5676 5672 5669 5668 5666
5647 5652 5655 5658 5660 5662 5663 5666 5668 5670 5672 5675 5677 5681 5685 5689 5693 5697 5700 5704 5707 5709 5711 5713 5714 5715 5715 5715 5713 5714 5713 5712 5710 5709 5707 5705 5704 5702 5700 5698 5696 5694 5691 5687 5684 5681 5678 5675 5670 5665 5661 5660 5658 5656
5644 5649 5653 5655 5657 5658 5659 5663 5664 5665 5667 5669 5672 5676 5679 5684 5687 5691 5694 5698 5701 5703 5705 5707 5709 5712 5710 5709 5709 5708 5707 5707 5705 5703 5701 5699 5697 5695 5693 5690 5688 5686 5683 5680 5677 5674 5671 5667 5662 5657 5653 5651 5649 5648
5642 5647 5649 5652 5653 5655 5658 5660 5660 5662 5663 5665 5668 5671 5674 5678 5681 5685 5689 5692 5695 5697 5700 5703 5703 5703 5703 5702 5702 5702 5701 5699 5698 5696 5694 5691 5690 5688 5685 5682 5680 5677 5674 5671 5668 5665 5663 5659 5653 5648 5645 5644 5642 5640
5639 5643 5646 5649 5651 5653 5654 5655 5657 5659 5660 5662 5665 5667 5671 5673 5677 5680 5683 5686 5689 5692 5694 5695 5695 5695 5694 5695 5695 5693 5693 5692 5690 5687 5685 5683 5682 5680 5677 5674 5671 5670 5667 5663 5660 5657 5654 5649 5645 5640 5637 5636 5634 5632
5636 5639 5643 5646 5648 5649 5651 5652 5654 5655 5657 5658 5661 5664 5667 5670 5672 5675 5678 5680 5683 5685 5687 5687 5687 5687 5687 5686 5685 5684 5684 5682 5681 5678 5676 5674 5673 5672 5670 5665 5661 5660 5658 5655 5651 5648 5645 5641 5637 5633 5632 5629 5627 5625
5633 5637 5640 5642 5645 5647 5649 5649 5651 5652 5653 5654 5656 5659 5662 5664 5667 5669 5672 5675 5676 5677 5678 5679 5680 5679 5677 5676 5676 5676 5675 5674 5672 5669 5666 5665 5664 5661 5660 5658 5654 5651 5650 5647 5643 5640 5638 5634 5630 5628 5627 5624 5621 5620
5631 5634 5637 5640 5642 5644 5645 5647 5648 5650 5651 5652 5654 5655 5657 5659 5662 5665 5667 5668 5669 5671 5672 5672 5671 5670 5670 5670 5670 5667 5666 5664 5661 5659 5657 5656 5655 5653 5652 5648 5645 5644 5643 5640 5637 5632 5628 5626 5624 5622 5621 5619 5616 5614
5630 5633 5636 5638 5639 5641 5642 5644 5646 5648 5648 5650 5651 5651 5653 5655 5658 5660 5662 5664 5665 5666 5666 5666 5665 5664 5663 5662 5661 5660 5659 5657 5655 5653 5650 5648 5646 5643 5641 5638 5638 5635 5634 5630 5627 5624 5621 5620 5618 5617 5615 5613 5611 5609
5627 5630 5633 5635 5637 5639 5641 5642 5644 5646 5646 5647 5649 5650 5652 5654 5656 5657 5658 5659 5660 5661 5661 5660 5660 5659 5658 5656 5655 5654 5652 5650 5648 5645 5643 5640 5638 5635 5631 5631 5630 5627 5625 5623 5620 5618 5617 5615 5613 5612 5610 5608 5606 5604
5625 5627 5629 5633 5635 5636 5638 5640 5641 5643 5645 5645 5647 5648 5650 5652 5653 5654 5655 5656 5657 5657 5656 5655 5655 5653 5652 5650 5648 5646 5644 5642 5640 5638 5636 5633 5631 5630 5628 5625 5623 5622 5619 5617 5615 5613 5612 5610 5609 5607 5605 5603 5601 5599
5623 5625 5627 5630 5632 5634 5636 5637 5639 5641 5643 5644 5646 5646 5648 5650 5651 5652 5653 5653 5652 5651 5651 5650 5648 5646 5644 5643 5640 5638 5636 5634 5633 5631 5629 5627 5625 5623 5621 5619 5618 5616 5615 5613 5610 5609 5608 5606 5604 5602 5601 5599 5597 5595
5620 5622 5625 5627 5630 5632 5633 5635 5636 5638 5639 5642 5644 5645 5647 5648 5648 5649 5649 5649 5648 5647 5645 5643 5641 5639 5637 5635 5634 5632 5630 5628 5627 5624 5622 5620 5619 5617 5616 5615 5613 5612 5610 5608 5607 5606 5604 5602 5600 5598 5596 5595 5594 5591
5618 5621 5623 5625 5627 5629 5631 5633 5635 5637 5637 5639 5640 5642 5644 5645 5645 5646 5646 5645 5644 5643 5641 5638 5636 5634 5632 5630 5628 5626 5625 5623 5621 5620 5619 5617 5615 5613 5611 5610 5609 5607 5606 5605 5603 5601 5599 5598 5596 5594 5593 5592 5590 5589
5617 5619 5621 5624 5627 5629 5631 5632 5634 5635 5636 5638 5639 5640 5642 5642 5642 5642 5642 5641 5639 5637 5636 5635 5633 5630 5628 5626 5625 5623 5622 5620 5618 5616 5614 5612 5611 5609 5607 5605 5604 5602 5601 5599 5598 5596 5594 5593 5592 5590 5589 5588 5587 5585
5619 5621 5623 5625 5627 5629 5630 5632 5634 5635 5636 5637 5638 5639 5639 5639 5639 5638 5637 5636 5636 5635 5633 5631 5629 5628 5626 5624 5622 5620 5618 5616 5613 5612 5610 5608 5606 5604 5602 5600 5598 5597 5595 5594 5592 5591 5590 5588 5587 5586 5585 5584 5583 5582
5621 5622 5624 5626 5628 5630 5632 5634 5635 5637 5637 5638 5638 5637 5637 5636 5636 5634 5634 5633 5633 5631 5630 5628 5627 5625 5623 5621 5618 5616 5614 5611 5609 5607 5604 5602 5599 5597 5596 5594 5592 5591 5590 5588 5587 5586 5585 5584 5583 5582 5581 5579 5578 5577